TimeEDT,TemperatureF,Dew PointF,Humidity,Sea Level PressureIn,VisibilityMPH,Wind Direction,Wind SpeedMPH,Gust SpeedMPH,PrecipitationIn,Events,Conditions,WindDirDegrees,DateUTC
12:54 AM,39.9,26.1,58,30.09,10.0,WNW,12.7,-,N/A,,Scattered Clouds,290,2013-03-28 04:54:00
1:54 AM,37.9,27.0,65,30.09,10.0,West,9.2,-,N/A,,Partly Cloudy,280,2013-03-28 05:54:00
2:54 AM,37.0,28.0,70,30.08,10.0,West,9.2,-,N/A,,Scattered Clouds,270,2013-03-28 06:54:00
3:54 AM,37.0,28.9,73,30.08,10.0,West,6.9,-,N/A,,Mostly Cloudy,280,2013-03-28 07:54:00
4:54 AM,37.0,28.0,70,30.07,10.0,West,10.4,-,N/A,,Scattered Clouds,270,2013-03-28 08:54:00
5:54 AM,36.0,28.0,73,30.07,10.0,West,6.9,-,N/A,,Scattered Clouds,260,2013-03-28 09:54:00
6:54 AM,35.1,27.0,72,30.08,10.0,SW,3.5,-,N/A,,Scattered Clouds,230,2013-03-28 10:54:00
7:54 AM,37.9,28.0,68,30.09,10.0,West,8.1,-,N/A,,Mostly Cloudy,260,2013-03-28 11:54:00
8:54 AM,41.0,28.0,60,30.09,10.0,West,12.7,20.7,N/A,,Mostly Cloudy,270,2013-03-28 12:54:00
9:54 AM,46.0,30.0,54,30.09,10.0,WNW,15.0,24.2,N/A,,Mostly Cloudy,290,2013-03-28 13:54:00
10:54 AM,43.0,28.9,58,30.11,10.0,WNW,17.3,26.5,N/A,,Mostly Cloudy,300,2013-03-28 14:54:00
11:54 AM,45.0,28.9,53,30.11,10.0,NW,11.5,23.0,0.00,,Overcast,310,2013-03-28 15:54:00
12:54 PM,44.1,30.9,60,30.12,10.0,NW,11.5,-,0.00,,Mostly Cloudy,310,2013-03-28 16:54:00
1:54 PM,46.0,25.0,44,30.11,10.0,NW,13.8,19.6,N/A,,Mostly Cloudy,320,2013-03-28 17:54:00
2:54 PM,46.9,24.1,41,30.11,10.0,NW,12.7,19.6,N/A,,Mostly Cloudy,310,2013-03-28 18:54:00
3:54 PM,48.0,23.0,37,30.10,10.0,NW,11.5,25.3,N/A,,Overcast,320,2013-03-28 19:54:00
4:54 PM,48.0,24.1,39,30.10,10.0,WNW,15.0,24.2,N/A,,Mostly Cloudy,290,2013-03-28 20:54:00
5:54 PM,48.0,23.0,37,30.12,10.0,NW,16.1,21.9,N/A,,Overcast,320,2013-03-28 21:54:00
6:54 PM,46.0,28.0,50,30.14,10.0,West,17.3,21.9,N/A,,Overcast,280,2013-03-28 22:54:00
7:54 PM,45.0,28.0,52,30.17,10.0,WNW,11.5,-,N/A,,Overcast,290,2013-03-28 23:54:00
8:54 PM,43.0,28.9,58,30.19,10.0,WNW,8.1,-,N/A,,Mostly Cloudy,290,2013-03-29 00:54:00
9:54 PM,44.1,28.9,55,30.20,10.0,WNW,8.1,-,N/A,,Mostly Cloudy,290,2013-03-29 01:54:00
10:54 PM,44.1,28.9,55,30.20,10.0,WNW,6.9,-,N/A,,Overcast,300,2013-03-29 02:54:00
11:54 PM,43.0,28.9,58,30.21,10.0,WNW,6.9,-,N/A,,Mostly Cloudy,300,2013-03-29 03:54:00